Location: Gro� Glienicke
(52.4675°N, 13.1079°E)
Time: 01:31:09
(UTC+00:00)

Cosmos 1408 - Pass Details

Date: 06 July 2020
Orbit: 470 x 494 km, 82.6° (Epoch: 04 August)

Event Time Altitude Azimuth Distance (km) Brightness Sun altitude
Exits shadow 21:03:26 13° 134° (SE) 1,438 4.3 -9.9°
Maximum altitude 21:05:36 22° 89° (E) 1,076 4.0 -10.0°
Drops below altitude 10° 21:08:26 10° 37° (NE) 1,646 5.6 -10.2°
Sets 21:10:50 0° 22° (NNE) 2,529 6.8 -10.4°
